User: anonymous   Login
Location: Azul
(36.7830°S, 59.8500°W)
Time: 10:01:12
(UTC-03:00)
Language:

DIWATA 2B (PO-101) - Orbit

View from above orbital plane
View from above orbital plane
View from above satellite
View from above satellite

Ground track
Ground track

The orbit data is extracted from the following two-line orbital elements,

1 43678U 18084H   21295.22586669 -.00000136  00000-0 -76564-5 0  9997
2 43678  97.9399  61.2812 0009834   1.4685 358.6560 14.91808612162332
Epoch (UTC): 22 October 2021 05:25:14
Eccentricity: 0.0009834
inclination: 97.9399°
perigee height: 585 km
apogee height: 599 km
right ascension of ascending node: 61.2812°
argument of perigee: 1.4685°
revolutions per day: 14.91808612
mean anomaly at epoch: 358.6560°
orbit number at epoch: 16233

The dashed part of the orbit path shows where the satellite is in the earth's shadow,  

DLR